This is the latest recevied weather packets stored in our database for station/object PY2UTU-WX. If no packets are shown the sender has not sent any weather packets the latest 10 day(s).
| Time | Temp. | Humidity | Pressure | Rain* | Wind** | Luminosity | Snow |
|---|---|---|---|---|---|---|---|
| 1777764443 | 23.89° C | 98% | 926.3 hPa | - | - | - | - |
| 1777763543 | 23.33° C | 98% | 926.2 hPa | - | - | - | - |
| 1777762643 | 24.44° C | 98% | 926.2 hPa | - | - | - | - |
| 1777761743 | 23.33° C | 98% | 926 hPa | - | - | - | - |
| 1777760843 | 23.89° C | 98% | 925.7 hPa | - | - | - | - |
| 1777759943 | 22.78° C | 98% | 925.5 hPa | - | - | - | - |
| 1777759043 | 22.78° C | 98% | 925.6 hPa | - | - | - | - |
| 1777758143 | 22.78° C | 98% | 925.6 hPa | - | - | - | - |
| 1777757243 | 23.33° C | 98% | 925.8 hPa | - | - | - | - |
| 1777756343 | 22.78° C | 98% | 925.6 hPa | - | - | - | - |
| 1777755443 | 22.78° C | 98% | 925.7 hPa | - | - | - | - |
| 1777754543 | 23.33° C | 98% | 925.7 hPa | - | - | - | - |
| 1777753643 | 23.89° C | 98% | 925.9 hPa | - | - | - | - |
| 1777752743 | 23.33° C | 98% | 925.8 hPa | - | - | - | - |
| 1777751843 | 23.33° C | 98% | 925.7 hPa | - | - | - | - |
| 1777750943 | 23.33° C | 98% | 925.8 hPa | - | - | - | - |
| 1777750043 | 23.33° C | 98% | 925.6 hPa | - | - | - | - |
| 1777749143 | 22.78° C | 98% | 925.5 hPa | - | - | - | - |
| 1777748243 | 23.33° C | 98% | 925.3 hPa | - | - | - | - |
| 1777747343 | 23.33° C | 98% | 925 hPa | - | - | - | - |
| 1777746443 | 23.89° C | 98% | 924.9 hPa | - | - | - | - |
| 1777745543 | 23.33° C | 98% | 924.8 hPa | - | - | - | - |
| 1777744643 | 25° C | 98% | 924.6 hPa | - | - | - | - |
| 1777743743 | 23.89° C | 98% | 924.4 hPa | - | - | - | - |
| 1777742843 | 25° C | 98% | 924.5 hPa | - | - | - | - |
* Rain since midnight (hover to see other rain measurements)
** Current wind speed in m/s (hover to see current wind gust speed)